LB9GJ Weather Reports


Display with metric or nautical units.
time (UTC)temp
F
wind
direction
speed
MPH
gust
MPH
rain 1hr
in
rain 24hr
in
rain mn
in
humidity
%
barometer
mb
20260507083002 48 333 7.0 0.0 0.00 0.00 0.00 59 1010.6
20260507081502 46 325 6.0 0.0 0.00 0.00 0.00 59 1010.6
20260507080002 50 325 6.0 0.0 0.00 0.00 0.00 59 1010.6
20260507074502 48 325 7.0 0.0 0.00 0.00 0.00 59 1010.6
20260507073002 47 325 7.0 0.0 0.00 0.00 0.00 59 1010.6
20260507071502 48 325 6.0 0.0 0.00 0.00 0.00 59 1010.6
20260507070003 43 325 7.0 0.0 0.00 0.00 0.00 59 1010.6
20260507064502 40 325 7.0 0.0 0.00 0.00 0.00 59 1010.6
20260507063002 41 316 6.0 0.0 0.00 0.00 0.00 59 1010.6
20260507061502 38 316 8.0 0.0 0.00 0.00 0.00 59 1010.6
20260507060002 36 316 7.0 0.0 0.00 0.00 0.00 59 1010.6
20260507054502 36 314 2.0 0.0 0.00 0.00 0.00 59 1010.6
20260507053003 33 314 3.0 0.0 0.00 0.00 0.00 59 1010.6
20260507051502 29 314 0.0 0.0 0.00 0.00 0.00 59 1010.6
20260507050002 28 314 4.0 0.0 0.00 0.00 0.00 59 1010.6
20260507044502 27 314 6.0 0.0 0.00 0.00 0.00 59 1010.6
20260507043002 27 314 6.0 0.0 0.00 0.00 0.00 59 1010.6
20260507041502 26 314 2.0 0.0 0.00 0.00 0.00 59 1010.6
20260507040002 25 314 4.0 0.0 0.00 0.00 0.00 59 1010.6
20260507034502 24 316 7.0 0.0 0.00 0.00 0.00 59 1010.6
20260507033001 24 316 7.0 0.0 0.00 0.00 0.00 59 1010.6
20260507031502 23 316 4.0 0.0 0.00 0.00 0.00 59 1010.6
20260507030002 24 316 5.0 0.0 0.00 0.00 0.00 59 1010.6
20260507024502 24 316 6.0 0.0 0.00 0.00 0.00 59 1010.6
20260507023002 23 310 5.0 0.0 0.00 0.00 0.00 59 1010.6
20260507021502 22 310 2.0 0.0 0.00 0.00 0.00 59 1010.6
20260507020002 23 312 3.0 0.0 0.00 0.00 0.00 59 1010.6
20260507014502 23 312 3.0 0.0 0.00 0.00 0.00 59 1010.6
20260507013002 23 312 4.0 0.0 0.00 0.00 0.00 59 1010.6
20260507011502 22 312 4.0 0.0 0.00 0.00 0.00 59 1010.6
20260507010002 22 312 3.0 0.0 0.00 0.00 0.00 59 1010.6
20260507004502 23 308 2.0 0.0 0.00 0.00 0.00 59 1010.6
20260507003002 24 308 6.0 0.0 0.00 0.00 0.00 59 1010.6
20260507001502 25 308 5.0 0.0 0.00 0.00 0.00 59 1010.6
20260507000002 25 304 7.0 0.0 0.00 0.00 0.00 59 1010.6
20260506234502 24 304 6.0 0.0 0.00 0.00 0.00 59 1010.6
20260506233001 24 304 4.0 0.0 0.00 0.00 0.00 59 1010.6
20260506231502 23 304 2.0 0.0 0.00 0.00 0.00 59 1010.6
20260506230002 24 304 2.0 0.0 0.00 0.00 0.00 59 1010.6
20260506224502 24 300 6.0 0.0 0.00 0.00 0.00 59 1010.6
20260506223002 24 300 7.0 0.0 0.00 0.00 0.00 59 1010.6
20260506221502 24 293 7.0 0.0 0.00 0.00 0.00 59 1010.6
20260506220002 24 293 2.0 0.0 0.00 0.00 0.00 59 1010.6
20260506214502 25 293 4.0 0.0 0.00 0.00 0.00 59 1010.6
20260506213002 24 293 2.0 0.0 0.00 0.00 0.00 59 1010.6
20260506211502 26 293 6.0 0.0 0.00 0.00 0.00 59 1010.6
20260506210001 25 293 1.0 0.0 0.00 0.00 0.00 59 1010.6
20260506204502 25 294 0.0 0.0 0.00 0.00 0.00 59 1010.6
20260506203002 25 294 0.0 0.0 0.00 0.00 0.00 59 1010.6
20260506201503 27 300 7.0 0.0 0.00 0.00 0.00 59 1010.6
20260506200002 27 300 6.0 0.0 0.00 0.00 0.00 59 1010.6
20260506194502 27 300 0.0 0.0 0.00 0.00 0.00 59 1010.6
20260506193002 28 300 6.0 0.0 0.00 0.00 0.00 59 1010.6
20260506191502 28 300 2.0 0.0 0.00 0.00 0.00 59 1010.6
20260506190001 30 300 7.0 0.0 0.00 0.00 0.00 59 1010.6
20260506184502 30 300 7.0 0.0 0.00 0.00 0.00 59 1010.6
20260506183002 32 300 6.0 0.0 0.00 0.00 0.00 59 1010.6
20260506181502 33 285 5.0 0.0 0.00 0.00 0.00 59 1010.6
20260506180002 33 285 4.0 0.0 0.00 0.00 0.00 59 1010.6
20260506174502 34 285 5.0 0.0 0.00 0.00 0.00 59 1010.6
20260506173001 35 285 5.0 0.0 0.00 0.00 0.00 59 1010.6
20260506171502 35 285 4.0 0.0 0.00 0.00 0.00 59 1010.6
20260506170001 35 285 4.0 0.0 0.00 0.00 0.00 59 1010.6
20260506164502 35 285 7.0 0.0 0.00 0.00 0.00 59 1010.6
20260506163002 36 269 8.0 0.0 0.00 0.00 0.00 59 1010.6
20260506161502 37 269 8.0 0.0 0.00 0.00 0.00 59 1010.6
20260506160001 37 269 8.0 0.0 0.00 0.00 0.00 59 1010.6
20260506154502 39 276 6.0 0.0 0.00 0.00 0.00 59 1010.6
20260506153001 35 276 7.0 0.0 0.00 0.00 0.00 59 1010.6
20260506151502 37 276 7.0 0.0 0.00 0.00 0.00 59 1010.6
20260506150002 36 276 7.0 0.0 0.00 0.00 0.00 59 1010.6
20260506144502 43 276 8.0 0.0 0.00 0.00 0.00 59 1010.6
20260506143001 41 289 7.0 0.0 0.00 0.00 0.00 59 1010.6
20260506141502 48 289 6.0 0.0 0.00 0.00 0.00 59 1010.6
20260506140002 49 292 7.0 0.0 0.00 0.00 0.00 59 1010.6
20260506134502 43 292 6.0 0.0 0.00 0.00 0.00 59 1010.6
20260506133002 42 292 4.0 0.0 0.00 0.00 0.00 59 1010.6
20260506131502 42 292 6.0 0.0 0.00 0.00 0.00 59 1010.6
20260506130003 42 292 7.0 0.0 0.00 0.00 0.00 59 1010.6
20260506124502 42 285 7.0 0.0 0.00 0.00 0.00 59 1010.6
20260506123003 45 285 6.0 0.0 0.00 0.00 0.00 59 1010.6
20260506121502 53 285 8.0 0.0 0.00 0.00 0.00 59 1010.6
20260506120003 49 304 9.0 0.0 0.00 0.00 0.00 59 1010.6
20260506114502 41 304 0.0 0.0 0.00 0.00 0.00 59 1010.6
20260506113002 61 304 9.0 0.0 0.00 0.00 0.00 59 1010.6
20260506111502 63 304 8.0 0.0 0.00 0.00 0.00 59 1010.6
20260506110003 61 304 7.0 0.0 0.00 0.00 0.00 59 1010.6
20260506104502 42 308 6.0 0.0 0.00 0.00 0.00 59 1010.6
20260506103002 51 308 7.0 0.0 0.00 0.00 0.00 59 1010.6
20260506101502 48 308 7.0 0.0 0.00 0.00 0.00 59 1010.6
20260506100003 56 308 7.0 0.0 0.00 0.00 0.00 59 1010.6
20260506094502 52 308 7.0 0.0 0.00 0.00 0.00 59 1010.6
20260506093002 55 308 6.0 0.0 0.00 0.00 0.00 59 1010.6
20260506091502 52 308 6.0 0.0 0.00 0.00 0.00 59 1010.6
20260506090002 53 308 8.0 0.0 0.00 0.00 0.00 59 1010.6
20260506084502 48 302 7.0 0.0 0.00 0.00 0.00 59 1010.6